EW4699 Weather Reports


time (UTC)temp
F
wind
direction
speed
knots
gust
knots
rain 1hr
in
rain 24hr
in
rain mn
in
humidity
%
barometer
mb
20260506004655 28 225 0.0 0.0 0.00 0.00 0.00 80 1012.4
20260506003057 28 229 0.0 0.0 0.00 0.00 0.00 81 1012.4
20260506001656 28 229 0.0 2.6 0.00 0.00 0.00 81 1012.3
20260505234659 28 119 0.0 0.0 0.00 0.00 0.00 78 1012.3
20260505233058 29 119 0.0 0.0 0.00 0.00 0.00 77 1012.2
20260505231656 29 119 0.0 0.0 0.00 0.00 0.00 76 1012.2
20260505230120 30 119 0.9 2.6 0.00 0.00 0.00 75 1012.1
20260505224657 30 64 0.0 2.6 0.00 0.00 0.00 72 1012.1
20260505223058 31 132 0.0 0.0 0.00 0.00 0.00 70 1012.1
20260505221656 31 132 0.0 0.0 0.00 0.00 0.00 70 1012.2
20260505214657 33 131 0.0 0.0 0.00 0.00 0.00 68 1011.8
20260505213056 33 90 0.9 2.6 0.00 0.00 0.00 68 1011.8
20260505211657 33 309 0.0 0.0 0.00 0.00 0.00 71 1011.6
20260505210105 33 308 0.0 0.9 0.00 0.00 0.00 71 1011.5
20260505204659 34 308 0.0 0.0 0.00 0.00 0.00 65 1011.4
20260505203107 35 308 0.0 0.0 0.00 0.00 0.00 60 1011.2
20260505201657 37 308 0.0 0.0 0.00 0.00 0.00 56 1011.1
20260505200109 38 308 0.0 0.9 0.00 0.00 0.00 52 1011.1
20260505194657 40 308 0.0 0.9 0.00 0.00 0.00 48 1010.9
20260505193104 40 309 0.0 0.9 0.00 0.00 0.00 45 1010.8
20260505191700 42 309 0.0 0.9 0.00 0.00 0.00 43 1010.7
20260505190057 44 310 0.0 0.9 0.00 0.00 0.00 38 1010.6
20260505184657 44 310 0.0 1.7 0.00 0.01 0.00 35 1010.5
20260505183057 45 311 0.9 5.2 0.00 0.01 0.00 33 1010.4
20260505181700 45 326 2.6 7.8 0.00 0.01 0.00 32 1010.2
20260505180057 46 310 5.2 11.3 0.00 0.01 0.00 30 1010.3
20260505174657 46 304 4.3 9.6 0.00 0.01 0.00 29 1010.1
20260505173057 47 288 3.5 7.0 0.00 0.01 0.00 30 1010.0
20260505171700 47 278 3.5 8.7 0.00 0.01 0.00 31 1010.0
20260505170057 47 304 4.3 9.6 0.00 0.01 0.00 30 1009.8
20260505164657 48 301 5.2 13.0 0.00 0.01 0.00 29 1009.8
20260505163103 49 288 2.6 7.0 0.00 0.01 0.00 27 1009.7
20260505161657 48 282 5.2 9.6 0.00 0.01 0.00 27 1009.8
20260505153057 49 284 4.3 10.4 0.00 0.01 0.00 23 1009.6
20260505151658 49 286 4.3 11.3 0.00 0.01 0.00 23 1009.5
20260505150107 49 254 4.3 13.9 0.00 0.01 0.00 22 1009.3
20260505140105 46 309 4.3 12.2 0.00 0.01 0.00 25 1009.3
20260505130112 49 292 6.1 16.5 0.00 0.01 0.00 25 1009.3
20260505124658 47 309 4.3 8.7 0.00 0.01 0.00 31 1009.3
20260505123102 45 327 4.3 7.8 0.00 0.01 0.00 31 1009.4
20260505121658 47 329 0.9 8.7 0.00 0.01 0.00 30 1009.2
20260505120113 47 316 7.0 13.0 0.00 0.01 0.00 30 1009.2
20260505114659 47 277 1.7 7.8 0.00 0.01 0.00 30 1009.1
20260505113116 47 311 2.6 7.8 0.00 0.01 0.00 30 1009.1
20260505111657 48 228 2.6 8.7 0.00 0.01 0.00 29 1009.2
20260505110125 47 278 2.6 6.1 0.00 0.01 0.00 34 1009.2
20260505101658 45 223 0.9 5.2 0.00 0.01 0.00 35 1009.4
20260505094701 43 324 1.7 4.3 0.00 0.01 0.00 41 1009.6
20260505093100 43 328 0.9 4.3 0.00 0.01 0.00 41 1009.6
20260505091658 43 303 0.9 4.3 0.00 0.01 0.00 40 1009.6
20260505090106 44 293 0.9 4.3 0.00 0.01 0.00 40 1009.6
20260505084658 42 304 0.9 4.3 0.00 0.01 0.00 43 1009.6
20260505083105 43 293 2.6 4.3 0.00 0.01 0.00 44 1009.5
20260505081658 43 300 1.7 6.1 0.00 0.01 0.00 42 1009.4
20260505080058 43 331 2.6 7.8 0.00 0.01 0.00 44 1009.3
20260505074658 40 264 2.6 6.1 0.00 0.01 0.00 47 1009.3
20260505073104 39 288 1.7 7.0 0.00 0.01 0.00 48 1009.2
20260505071658 39 325 3.5 7.0 0.00 0.01 0.00 49 1009.2
20260505070059 40 325 1.7 7.8 0.00 0.01 0.00 48 1009.2
20260505064658 40 316 0.9 6.1 0.00 0.01 0.00 49 1009.1
20260505063059 40 350 0.9 5.2 0.00 0.01 0.00 50 1009.1
20260505061657 40 320 2.6 7.0 0.00 0.01 0.00 50 1009.0
20260505060059 39 5 2.6 6.1 0.00 0.01 0.00 52 1009.0
20260505054658 39 308 1.7 7.8 0.00 0.01 0.00 53 1008.9
20260505053058 38 330 0.0 5.2 0.00 0.01 0.00 56 1008.9
20260505051659 38 267 0.0 3.5 0.00 0.01 0.00 58 1008.8
20260505041700 34 310 0.0 0.0 0.00 0.01 0.00 69 1008.3
20260505040104 33 311 0.0 0.0 0.00 0.01 0.00 73 1008.1
20260505034659 32 310 0.0 0.9 0.00 0.01 0.00 72 1008.1
20260505033059 31 306 1.7 3.5 0.00 0.01 0.00 76 1007.9
20260505031659 31 331 0.0 1.7 0.00 0.01 0.00 74 1008.0
20260505024700 33 344 1.7 2.6 0.00 0.01 0.00 69 1007.6
20260505023059 34 351 0.0 4.3 0.00 0.01 0.00 67 1007.6
20260505021701 34 347 1.7 7.8 0.00 0.01 0.00 66 1007.5
20260505020103 35 5 2.6 10.4 0.00 0.01 0.00 65 1007.2
20260505014659 34 317 5.2 9.6 0.00 0.01 0.00 67 1007.2
20260505013059 35 328 2.6 7.0 0.00 0.01 0.00 68 1007.2
20260505011700 35 355 2.6 7.0 0.00 0.01 0.00 67 1007.1
20260505010059 36 351 1.7 5.2 0.00 0.01 0.00 67 1006.9